Weather observations for the past three days for
Saipan Island, Saipan International Airport
Metric (Imperial)
Date Time (chst) Wind (kph) Vis. (km) Weather Sky Cond. Temperature (ºC) Relative Humidity Wind Chill (°C) Heat Index (°C) Pressure Precipitation (cm)
Air Dwpt 6 hour altimeter (cm) sea level (mb) 1 hr 3 hr 6 hr
Max. Min.
13 03:54 E 15 16.09 Fair CLR 28.3 25 28.3 27.2 82% 33 75.64 1010.6
13 02:54 E 13 16.09 Fair CLR 27 25 89% 31 75.64 0.0
13 01:54 NE 9 16.09 Fair CLR 27.8 24.4 82% 32 75.64 1010.4
13 00:54 E 19 16.09 A Few Clouds FEW016 27.8 23.9 79% 32 75.67 1010.8
12 23:54 E 13 16.09 Fair CLR 28.3 24.4 79% 33 75.74 1011.7
12 22:54 E 13 16.09 A Few Clouds FEW060 28.3 25 82% 33 75.74 1012.0
12 21:54 SE 15 16.09 A Few Clouds FEW011 28.3 25 31.7 27.2 82% 33 75.74 1011.8 0.03
12 20:54 E 13 16.09 A Few Clouds FEW020 28.9 24.4 77% 34 75.72 1011.3
12 19:54 E 13 16.09 Fair CLR 28.9 25 80% 34 75.69 1011.3
12 18:54 E 13 16.09 A Few Clouds FEW012 27.8 25 85% 32 75.67 1010.7 0.03 0.03
12 17:54 E 20 16.09 Partly Cloudy SCT021 31.1 25 70% 38 75.62 1010.1
12 16:54 E 15 16.09 A Few Clouds FEW018 30.6 25 72% 37 75.57 1009.6
12 15:54 E 20 16.09 A Few Clouds FEW018 31.1 25 33.3 31.1 70% 38 75.54 1009.2
12 14:54 E 26 G 35 16.09 A Few Clouds FEW021 FEW025 FEW110 31.7 25.6 70% 40 75.54 1009.0
12 13:54 NE 24 16.09 A Few Clouds FEW020 31.7 25.6 70% 40 75.57 1009.4
12 12:54 E 22 16.09 Partly Cloudy SCT021 SCT080 33.3 25.6 64% 42 75.62 1010.1
12 11:54 E 19 16.09 Partly Cloudy SCT020 32.8 25 64% 40 75.67 1010.6
12 10:54 E 26 16.09 Partly Cloudy SCT024 32.8 25 64% 40 75.72 1011.3
12 09:54 E 22 16.09 Partly Cloudy SCT020 32.2 25 32.2 27.2 66% 39 75.77 1012.0
12 08:54 E 19 16.09 Partly Cloudy SCT022 31.1 25 70% 38 75.74 1011.9
12 07:54 NE 17 16.09 A Few Clouds FEW017 30 25 75% 36 75.72 1011.7
12 06:54 E 11 16.09 Mostly Cloudy SCT018 SCT032 BKN100 28.9 25.6 82% 35 75.67 1010.9
12 05:54 N 7 16.09 Mostly Cloudy SCT017 BKN070 27.8 25 85% 32 75.67 1010.9
12 04:54 NE 11 16.09 Partly Cloudy SCT019 27.2 25 88% 31 75.64 1010.5
12 03:54 NE 9 16.09 Mostly Cloudy SCT019 BKN100 27.2 23.9 28.9 26.7 82% 30 75.64 1010.6 0.03 0.03
12 02:54 E 13 16.09 Light Rain SCT019 BKN040 BKN075 27.8 24.4 82% 32 75.67 1010.7
12 01:54 E 9 16.09 Partly Cloudy SCT019 28.3 25 82% 33 75.67 1010.9
12 00:54 E 13 16.09 Partly Cloudy SCT018 28.9 25 80% 34 75.69 1011.2
11 23:54 E 11 16.09 Partly Cloudy SCT018 28.9 25 80% 34 75.72 1011.6
11 22:54 E 13 16.09 A Few Clouds FEW021 28.9 24.4 77% 34 75.77 1012.2
11 21:54 E 13 16.09 Fair CLR 28.9 24.4 30.6 28.3 77% 34 75.77 1012.3 0.05
11 20:54 E 15 16.09 Partly Cloudy SCT020 28.9 25 80% 34 75.74 1011.9
11 19:54 E 15 16.09 Partly Cloudy FEW018 SCT024 28.9 25 80% 34 75.72 1011.5
11 18:54 E 11 16.09 Partly Cloudy SCT024 28.9 25 80% 34 75.67 1010.9 0.05
11 17:54 E 19 16.09 Partly Cloudy SCT020 30 25 75% 36 75.64 1010.5
11 16:54 E 19 16.09 A Few Clouds FEW017 30.6 25.6 75% 38 75.62 1010.1 0.05
11 15:54 E 19 11.27 Light Rain SCT023 BKN047 28.9 25.6 32.8 28.9 82% 35 75.64 1010.6
11 14:54 E 20 16.09 Partly Cloudy SCT020 31.7 25 68% 39 75.69 1011.2
11 13:54 E 20 16.09 Partly Cloudy SCT017 30.6 24.4 70% 36 75.74 1011.7
11 12:54 E 22 16.09 A Few Clouds FEW060 32.2 23.9 62% 38 75.77 1012.0
11 11:54 E 22 16.09 Partly Cloudy SCT016 32.2 25.6 68% 40 75.79 1012.3
11 10:54 E 15 16.09 Partly Cloudy SCT022 30.6 25 72% 37 75.82 1012.9
11 09:54 E 22 16.09 Partly Cloudy FEW015 SCT024 30.6 25 31.1 27.2 72% 37 75.87 1013.5
11 08:54 E 26 16.09 Partly Cloudy FEW017 SCT025 30.6 25 72% 37 75.87 1013.7
11 07:54 E 20 16.09 Partly Cloudy SCT018 SCT060 29.4 25.6 80% 36 75.87 1013.6
11 06:54 E 19 16.09 Partly Cloudy SCT016 28.3 25 82% 33 75.82 1013.0
11 05:54 NE 13 16.09 Partly Cloudy FEW030 SCT045 27.8 25.6 88% 33 75.82 1012.8
11 04:54 NE 15 16.09 Fair CLR 27.2 25 88% 31 75.77 1012.1
11 03:54 NE 11 16.09 A Few Clouds FEW025 27.8 25.6 28.9 26.7 88% 33 75.74 1012.0 0.13
11 02:54 E 9 16.09 Fair CLR 26.7 23.9 85% 29 75.79 1012.6 0.13
11 01:54 E 24 12.87 Light Rain BKN016 BKN023 BKN030 28.3 25 82% 33 75.82 1012.9
11 00:54 E 17 16.09 Fair CLR 28.9 25 80% 34 75.87 1013.5
10 23:54 E 13 16.09 Fair CLR 28.3 24.4 79% 33 75.87 1013.6
10 22:54 E 15 16.09 Partly Cloudy SCT020 28.9 24.4 77% 34 75.92 1014.1
10 21:54 E 19 16.09 Partly Cloudy SCT020 28.9 25.6 32.2 28.3 82% 35 75.92 1014.1
10 20:54 NE 11 16.09 Partly Cloudy FEW013 SCT024 SCT031 28.3 25 82% 33 75.9 1014.0
10 19:54 E 19 16.09 Mostly Cloudy SCT020 BKN100 29.4 25.6 80% 36 75.84 1013.2
10 18:54 E 13 16.09 Mostly Cloudy SCT020 BKN100 29.4 25 77% 35 75.84 1013.1
10 17:54 E 19 16.09 Partly Cloudy SCT018 SCT100 30.6 25 72% 37 75.77 1012.1
10 16:54 E 19 16.09 Partly Cloudy FEW016 SCT100 31.1 25 70% 38 75.74 1011.8
10 15:54 E 22 16.09 Partly Cloudy SCT022 31.7 25.6 32.8 29.4 70% 40 75.74 1011.7
10 14:54 E 20 16.09 Partly Cloudy SCT110 31.7 25 68% 39 75.74 1011.9
10 13:54 NE 22 16.09 Partly Cloudy SCT024 31.7 25.6 70% 40 75.77 1012.3
10 12:54 E 26 16.09 Partly Cloudy SCT017 SCT026 30 24.4 72% 36 75.82 1012.9
10 11:54 E 28 16.09 Mostly Cloudy SCT017 BKN026 BKN070 31.7 24.4 65% 38 75.87 1013.4
10 10:54 E 28 16.09 Partly Cloudy SCT019 SCT025 32.2 25 66% 39 75.9 1013.7
10 09:54 E 24 16.09 Partly Cloudy FEW021 SCT029 SCT035 31.7 25.6 31.7 28.3 70% 40 75.9 1013.9 0.05
10 08:54 E 19 16.09 Partly Cloudy FEW017 SCT023 30.6 26.1 77% 39 75.92 1014.1 0.05
10 07:54 E 26 16.09 Partly Cloudy SCT020 SCT025 31.1 25 70% 38 75.9 1013.8
10 06:54 E 20 16.09 Partly Cloudy SCT019 SCT026 29.4 24.4 75% 35 75.9 1013.9
10 05:54 E 24 16.09 Partly Cloudy SCT019 29 24 74% 34 75.84 0.0
10 04:54 E 19 16.09 A Few Clouds FEW016 FEW022 28.3 25 82% 33 75.84 1013.1
Date Time (chst) Wind (kph) Vis. (km) Weather Sky Cond. Air Dwpt Max. Min. Relative Humidity Wind Chill (°C) Heat Index (°C) altimeter (cm) sea level (mb) 1 hr 3 hr 6 hr
6 hour
Temperature (ºC) Pressure Precipitation (cm)